Date String (YYYY-MM-DD hh:mm:ss) UTC,Instrument flags,Ambient pressure (hPa),Sample flow (lpm),Bypass flow (lpm),Sample temperature (°C),Ambient temperature (°C),ASC tube jacket temperature (°C),LED temperature (°C),Box temperature (°C),Sample RH (%),Span deviation,Mass concentration (μg/m³),Mass concentration (μg/m³),Mass concentration (μg/m³)
DateTimeUTC,F1_M11,P_M11,Q1_M11,Q2_M11,T1_M11,T2_M11,T3_M11,T4_M11,T5_M11,U1_M11,ZSPAN_M11,X2_M11,X0_M11,X1_M11
2023-02-14 18:00:00,,0802.2,5.02,0.00,22.2,22.4,00.0,31.0,24.2,11.8,0000.0,0002.56,0004.66,0002.00
2023-02-14 18:01:00,,0802.3,4.99,0.00,22.4,23.0,00.0,31.1,24.5,12.0,0000.0,0002.99,0005.39,0002.28
2023-02-14 18:02:00,,0802.3,5.00,0.00,22.4,22.6,00.0,31.1,24.4,12.0,0000.0,0003.26,0006.64,0002.54
2023-02-14 18:03:00,,0802.3,5.00,0.00,22.4,22.1,00.0,31.2,24.3,12.2,0000.0,0003.46,0008.23,0002.81
2023-02-14 18:04:00,,0802.3,5.00,0.00,22.4,21.6,00.0,31.2,24.2,11.8,0000.0,0003.63,0008.94,0003.06
2023-02-14 18:05:00,,0802.2,5.00,0.00,22.4,21.3,00.0,31.2,24.1,11.6,0000.0,0003.79,0009.44,0003.22
2023-02-14 18:06:00,,0802.3,5.00,0.00,22.4,21.1,00.0,31.2,24.1,11.7,0000.0,0003.97,0009.72,0003.35
2023-02-14 18:07:00,,0802.3,4.99,0.00,22.3,20.9,00.0,31.2,24.1,11.6,0000.0,0004.12,0010.77,0003.48
2023-02-14 18:08:00,,0802.4,5.02,0.00,22.3,20.8,00.0,31.2,24.0,11.8,0000.0,0004.24,0011.64,0003.60
2023-02-14 18:09:00,,0802.5,4.99,0.00,22.3,20.6,00.0,31.2,24.0,11.6,0000.0,0004.41,0013.19,0003.70
2023-02-14 18:10:00,,0802.5,4.98,0.00,22.3,20.6,00.0,31.2,24.0,11.8,0000.0,0004.51,0013.47,0003.78
2023-02-14 18:11:00,,0802.5,5.00,0.00,22.2,20.5,00.0,31.2,24.0,11.7,0000.0,0004.48,0013.57,0003.81
2023-02-14 18:12:00,,0802.5,4.99,0.00,22.2,20.4,00.0,31.2,23.9,11.5,0000.0,0004.43,0013.92,0003.80
2023-02-14 18:13:00,,0802.5,4.99,0.00,22.2,20.3,00.0,31.2,23.9,11.4,0000.0,0004.40,0014.57,0003.78
2023-02-14 18:14:00,,0802.4,5.00,0.00,22.2,20.2,00.0,31.2,23.8,11.7,0000.0,0004.38,0015.18,0003.78
2023-02-14 18:15:00,,0802.4,5.01,0.00,22.1,20.2,00.0,31.2,23.8,11.9,0000.0,0004.39,0014.95,0003.78
2023-02-14 18:16:00,,0802.4,4.99,0.00,22.1,20.2,00.0,31.1,23.8,12.0,0000.0,0004.42,0014.59,0003.80
2023-02-14 18:17:00,,0802.4,4.99,0.00,22.1,20.3,00.0,31.1,23.8,12.1,0000.0,0004.46,0014.62,0003.82
2023-02-14 18:18:00,,0802.4,4.99,0.00,22.1,20.3,00.0,31.1,23.8,12.1,0000.0,0004.50,0014.33,0003.83
2023-02-14 18:19:00,,0802.4,5.00,0.00,22.1,20.2,00.0,31.1,23.7,12.0,0000.0,0004.56,0014.45,0003.85
2023-02-14 18:20:00,,0802.5,5.00,0.00,22.0,20.2,00.0,31.1,23.7,12.0,0000.0,0004.58,0013.53,0003.86
2023-02-14 18:21:00,,0802.4,5.01,0.00,22.0,20.2,00.0,31.1,23.7,11.4,0000.0,0004.61,0013.60,0003.87
2023-02-14 18:22:00,,0802.4,5.01,0.00,22.0,20.2,00.0,31.0,23.7,11.5,0000.0,0004.62,0013.84,0003.87
2023-02-14 18:23:00,,0802.5,5.00,0.00,22.0,20.2,00.0,31.0,23.7,11.6,0000.0,0004.62,0013.77,0003.86
2023-02-14 18:24:00,,0802.5,5.01,0.00,22.0,20.0,00.0,31.0,23.6,11.4,0000.0,0004.64,0013.23,0003.87
2023-02-14 18:25:00,,0802.5,5.01,0.00,21.9,20.0,00.0,31.0,23.6,10.8,0000.0,0004.64,0011.53,0003.87
2023-02-14 18:26:00,,0802.5,5.00,0.00,21.9,20.1,00.0,31.0,23.6,11.4,0000.0,0004.63,0011.68,0003.85
2023-02-14 18:27:00,,0802.5,4.99,0.00,21.9,20.1,00.0,31.0,23.7,11.4,0000.0,0004.62,0011.69,0003.84
2023-02-14 18:28:00,,0802.5,4.99,0.00,21.9,20.1,00.0,30.9,23.7,11.1,0000.0,0004.58,0011.81,0003.83
2023-02-14 18:29:00,,0802.4,4.99,0.00,21.9,20.1,00.0,30.9,23.7,11.2,0000.0,0004.54,0012.99,0003.82
2023-02-14 18:30:00,,0802.4,5.00,0.00,21.9,20.2,00.0,30.9,23.7,11.5,0000.0,0004.52,0013.84,0003.81
2023-02-14 18:31:00,,0802.4,5.01,0.00,21.9,20.1,00.0,30.9,23.7,11.5,0000.0,0004.49,0013.39,0003.80
2023-02-14 18:32:00,,0802.4,5.00,0.00,21.9,20.1,00.0,30.9,23.6,11.5,0000.0,0004.49,0013.32,0003.81
2023-02-14 18:33:00,,0802.4,5.00,0.00,21.9,20.0,00.0,30.9,23.6,11.7,0000.0,0004.52,0013.60,0003.81
2023-02-14 18:34:00,,0802.5,4.99,0.00,21.9,20.0,00.0,30.9,23.5,11.8,0000.0,0004.58,0013.87,0003.84
2023-02-14 18:35:00,,0802.5,5.01,0.00,21.8,20.0,00.0,30.8,23.5,11.5,0000.0,0004.62,0015.16,0003.86
2023-02-14 18:36:00,,0802.5,5.01,0.00,21.8,20.0,00.0,30.8,23.5,11.7,0000.0,0004.66,0015.59,0003.88
2023-02-14 18:37:00,,0802.4,4.98,0.00,21.8,20.0,00.0,30.8,23.5,12.0,0000.0,0004.74,0015.28,0003.91
2023-02-14 18:38:00,,0802.4,4.99,0.00,21.8,20.1,00.0,30.8,23.6,12.0,0000.0,0004.81,0015.84,0003.93
2023-02-14 18:39:00,,0802.3,5.01,0.00,21.8,20.1,00.0,30.8,23.6,12.3,0000.0,0004.91,0016.51,0003.96
2023-02-14 18:40:00,,0802.4,5.01,0.00,21.8,20.1,00.0,30.8,23.6,12.9,0000.0,0005.02,0016.53,0004.00
2023-02-14 18:41:00,,0802.4,5.00,0.00,21.8,20.1,00.0,30.8,23.6,12.9,0000.0,0005.06,0016.12,0004.04
2023-02-14 18:42:00,,0802.5,4.99,0.00,21.8,20.1,00.0,30.8,23.5,12.3,0000.0,0005.11,0016.54,0004.08
2023-02-14 18:43:00,,0802.4,5.01,0.00,21.8,20.0,00.0,30.8,23.5,12.0,0000.0,0005.19,0016.64,0004.12
2023-02-14 18:44:00,,0802.5,5.00,0.00,21.8,19.9,00.0,30.7,23.5,11.7,0000.0,0005.26,0017.14,0004.15
2023-02-14 18:45:00,,0802.4,5.00,0.00,21.7,19.8,00.0,30.7,23.4,11.5,0000.0,0005.28,0016.32,0004.18
2023-02-14 18:46:00,,0802.4,5.00,0.00,21.7,19.8,00.0,30.7,23.4,11.7,0000.0,0005.31,0015.39,0004.20
2023-02-14 18:47:00,,0802.4,5.00,0.00,21.7,19.9,00.0,30.7,23.4,11.6,0000.0,0005.35,0015.28,0004.23
2023-02-14 18:48:00,,0802.4,5.00,0.00,21.7,19.9,00.0,30.7,23.4,11.7,0000.0,0005.34,0015.95,0004.25
2023-02-14 18:49:00,,0802.4,5.00,0.00,21.7,19.9,00.0,30.7,23.5,11.6,0000.0,0005.33,0015.70,0004.26
2023-02-14 18:50:00,,0802.4,5.00,0.00,21.7,20.0,00.0,30.7,23.5,11.9,0000.0,0005.35,0015.87,0004.28
2023-02-14 18:51:00,,0802.4,5.00,0.00,21.7,20.1,00.0,30.7,23.5,13.1,0000.0,0005.34,0015.23,0004.29
2023-02-14 18:52:00,,0802.4,5.00,0.00,21.7,20.1,00.0,30.7,23.5,13.5,0000.0,0005.35,0015.56,0004.31
2023-02-14 18:53:00,,0802.4,5.00,0.00,21.7,20.1,00.0,30.7,23.5,13.2,0000.0,0005.36,0015.07,0004.30
2023-02-14 18:54:00,,0802.4,4.99,0.00,21.7,20.2,00.0,30.7,23.5,13.0,0000.0,0005.40,0015.72,0004.30
2023-02-14 18:55:00,,0802.4,5.01,0.00,21.7,20.2,00.0,30.7,23.5,12.9,0000.0,0005.37,0015.59,0004.30
2023-02-14 18:56:00,,0802.4,5.00,0.00,21.7,20.2,00.0,30.7,23.5,12.7,0000.0,0005.44,0016.17,0004.30
2023-02-14 18:57:00,,0802.4,5.01,0.00,21.7,20.2,00.0,30.6,23.5,12.3,0000.0,0005.47,0016.37,0004.30
2023-02-14 18:58:00,,0802.4,5.00,0.00,21.7,20.2,00.0,30.6,23.5,12.6,0000.0,0005.49,0016.80,0004.28
2023-02-14 18:59:00,,0802.4,4.99,0.00,21.8,20.3,00.0,30.6,23.6,12.8,0000.0,0005.52,0017.11,0004.28
